Portada
METAR-TAF:

METAR-TAF

Aeroports :

Cuenca, Equador

latitud: 02-53-22S, longitud: 078-59-04W, altitud: 2532 m

Observació

L'informe es va fer fa 1 hora i 14 minuts, a les 19:00 UTC
Vent 11 kt del Nord-Est
Temperatura 21°C
Humitat 49%
Pressió 1023 hPa
Visibilitat 10 km o més
Cel ennuvolat a una alçada de 4000 ft
Cel ennuvolat a una alçada de 30000 ft

METAR: SECU 041900Z 04011KT 9999 BKN040 BKN300 21/10 Q1023

Hora: 15:14 (20:14 UTC)


TAF: manca

Observacions i pronòstics meteorològics de més de 4000 aeroports (METAR i TAF).

Les estacions disponibles són els punts grocs i vermells al mapa.

Posi el ratolí al punt desitjat per veure el nom de l'estació.

Feu clic per veure les observacions i els pronòstics meteorològics.

Per canviar el mapa: feu clic els botons verds amb una creu de color negre per apropar; al botó verd amb un guió per allunyar la imatge; o en les fletxes verdes per a mapes adjacents.


METAR-TAF: